Pearl, MS

7:43 AM CST on January 18, 2017 (GMT -0600)
Jackson-Evers International

Weather History for KJAN - March, 2013

Change the Weather History Date:

Tuesday, March 5, 2013

  Actual Average Record
Temperature  
Mean Temperature 57 °F 54 °F  
Max Temperature 69 °F 66 °F 85 °F (1918)
Min Temperature 45 °F 43 °F 19 °F (1978)
Degree Days  
Heating Degree Days 8 11  
Month to date heating degree days 105 59  
Since 1 July heating degree days 1856 2051  
Cooling Degree Days 0 1  
Month to date cooling degree days 0 2  
Year to date cooling degree days 14 12  
Growing Degree Days 8 (Base 50)    
Moisture  
Dew Point 45 °F    
Average Humidity 63    
Maximum Humidity 90    
Minimum Humidity 36    
Precipitation  
Precipitation T in 0.17 in 2.72 in (1935)
Month to date precipitation T 0.82  
Year to date precipitation 17.44 10.55  
Sea Level Pressure  
Sea Level Pressure 30.03 in    
Wind  
Wind Speed 12 mph (WNW)    
Max Wind Speed 28 mph    
Max Gust Speed 38 mph    
Visibility 10 miles    
Events Rain    
T = Trace of Precipitation, MM = Missing Value Source: NWS Daily Summary

Daily Weather History Graph

Daily Weather History Graph

Search for Another Location

Airport or City:

Trip Planner

Search our weather history database for the weather conditions in past years. The results will help you decide how hot, cold, wet, or windy it might be!

Date:

Astronomy

Mar. 05, 2013 Rise Set
Actual Time 6:22 AM CST 6:01 PM CST
Civil Twilight 5:58 AM CST 6:25 PM CST
Nautical Twilight 5:29 AM CST 6:54 PM CST
Astronomical Twilight 5:01 AM CST 7:22 PM CST
Moon 1:20 AM CST (3/5) 11:55 AM CST (3/5)
Length of Visible Light 12h 27m
Length of Day
11h 38m
Last Quarter, 40% of the Moon is Illuminated
Mar 5
Last Quarter
Mar 11
New
Mar 19
First Quarter
Mar 27
Full
Apr 2
Last Quarter

Hourly Weather History & Observations

Time (CST) Temp. Windchill Dew Point Humidity Pressure Visibility Wind Dir Wind Speed Gust Speed Precip Events Conditions
1:54 AM 60.1 °F - 54.0 °F 80% 29.88 in 10.0 mi South 16.1 mph 20.7 mph N/A   Partly Cloudy
2:54 AM 60.1 °F - 54.0 °F 80% 29.87 in 10.0 mi South 13.8 mph - N/A   Clear
3:54 AM 60.1 °F - 55.0 °F 83% 29.87 in 10.0 mi South 15.0 mph - N/A   Mostly Cloudy
4:54 AM 60.1 °F - 55.0 °F 83% 29.88 in 10.0 mi South 10.4 mph - N/A   Overcast
5:45 AM 60.8 °F - 55.4 °F 82% 29.93 in 10.0 mi SSW 10.4 mph - N/A   Overcast
5:54 AM 61.0 °F - 55.9 °F 83% 29.93 in 10.0 mi SSW 9.2 mph - N/A   Overcast
6:54 AM 60.1 °F - 57.0 °F 90% 29.93 in 10.0 mi South 9.2 mph - 0.00 in   Overcast
7:54 AM 62.1 °F - 57.9 °F 86% 29.94 in 10.0 mi South 10.4 mph - 0.00 in   Overcast
8:54 AM 64.0 °F - 57.9 °F 80% 29.92 in 10.0 mi SW 9.2 mph - N/A   Overcast
9:54 AM 66.0 °F - 57.9 °F 75% 29.91 in 10.0 mi SW 10.4 mph - N/A   Overcast
10:54 AM 66.0 °F - 57.0 °F 73% 29.96 in 9.0 mi NW 28.8 mph 38.0 mph 0.00 in Rain Light Rain
11:06 AM 55.4 °F - 51.8 °F 88% 30.00 in 8.0 mi NW 16.1 mph 36.8 mph 0.00 in Rain Light Rain
11:14 AM 55.4 °F - 51.8 °F 88% 30.00 in 10.0 mi WNW 17.3 mph 25.3 mph 0.00 in   Overcast
11:54 AM 55.9 °F - 48.0 °F 75% 30.02 in 10.0 mi NNW 16.1 mph 27.6 mph 0.00 in   Overcast
12:54 PM 54.0 °F - 42.1 °F 64% 30.06 in 10.0 mi NW 13.8 mph 27.6 mph N/A   Overcast
1:20 PM 57.2 °F - 42.8 °F 59% 30.05 in 10.0 mi NNW 11.5 mph 18.4 mph N/A   Scattered Clouds
1:54 PM 55.0 °F - 39.9 °F 57% 30.05 in 10.0 mi NW 17.3 mph 25.3 mph N/A   Partly Cloudy
2:54 PM 57.9 °F - 39.9 °F 51% 30.06 in 10.0 mi NNW 16.1 mph 23.0 mph N/A   Partly Cloudy
3:54 PM 57.9 °F - 37.0 °F 46% 30.07 in 10.0 mi NW 16.1 mph 25.3 mph N/A   Partly Cloudy
4:54 PM 59.0 °F - 37.9 °F 46% 30.08 in 10.0 mi NNW 11.5 mph - N/A   Partly Cloudy
5:54 PM 55.9 °F - 37.0 °F 49% 30.09 in 10.0 mi NW 6.9 mph - N/A   Clear
6:54 PM 50.0 °F - 37.0 °F 61% 30.11 in 10.0 mi NNW 6.9 mph - N/A   Clear
7:54 PM 48.0 °F - 37.9 °F 68% 30.13 in 10.0 mi NNW 3.5 mph - N/A   Clear
8:54 PM 51.1 °F - 33.1 °F 50% 30.15 in 10.0 mi NW 10.4 mph 16.1 mph N/A   Clear
9:54 PM 48.9 °F - 26.1 °F 41% 30.18 in 10.0 mi NNW 9.2 mph 17.3 mph N/A   Clear
10:54 PM 48.0 °F - 23.0 °F 37% 30.20 in 10.0 mi NNW 9.2 mph 16.1 mph N/A   Clear
11:54 PM 46.0 °F 41.9 °F 23.0 °F 40% 30.21 in 10.0 mi NW 8.1 mph 18.4 mph N/A   Clear